This is the latest recevied weather packets stored in our database for station/object KC5DAQ-26. If no packets are shown the sender has not sent any weather packets the latest 1 day(s).
| Time | Temp. | Humidity | Pressure | Rain* | Wind** | Luminosity | Snow |
|---|---|---|---|---|---|---|---|
| 1778089652 | 27.78° C | 89% | 1013.7 hPa | 0 mm | - | 355 W/m² | - |
| 1778089413 | 27.22° C | 89% | 1013.6 hPa | 0 mm | - | 331 W/m² | - |
| 1778089168 | 27.22° C | 89% | 1013.7 hPa | 0 mm | - | 251 W/m² | - |
| 1778089105 | 27.22° C | 89% | 1013.7 hPa | 0 mm | - | 243 W/m² | - |
| 1778088981 | 27.22° C | 89% | 1013.8 hPa | 0 mm | - | 232 W/m² | - |
| 1778088801 | 27.22° C | 90% | 1013.9 hPa | 0 mm | - | 223 W/m² | - |
| 1778088740 | 27.22° C | 90% | 1013.9 hPa | 0 mm | - | 222 W/m² | - |
| 1778088680 | 27.22° C | 90% | 1013.9 hPa | 0 mm | - | 218 W/m² | - |
| 1778088620 | 27.22° C | 90% | 1013.9 hPa | 0 mm | - | 209 W/m² | - |
| 1778088260 | 27.22° C | 91% | 1013.8 hPa | 0 mm | - | 322 W/m² | - |
| 1778087959 | 27.22° C | 91% | 1013.8 hPa | 0 mm | - | 209 W/m² | - |
| 1778087840 | 27.22° C | 91% | 1013.8 hPa | 0 mm | - | 195 W/m² | - |
| 1778087539 | 27.22° C | 91% | 1014 hPa | 0 mm | - | 246 W/m² | - |
| 1778087420 | 26.67° C | 91% | 1014 hPa | 0 mm | - | 274 W/m² | - |
| 1778087360 | 26.67° C | 92% | 1014 hPa | 0 mm | - | 274 W/m² | - |
| 1778086879 | 26.67° C | 92% | 1014 hPa | 0 mm | - | 186 W/m² | - |
| 1778086700 | 26.67° C | 93% | 1014 hPa | 0 mm | - | 209 W/m² | - |
| 1778086024 | 26.67° C | 94% | 1014 hPa | 0 mm | - | 204 W/m² | - |
| 1778085965 | 26.67° C | 94% | 1014 hPa | 0 mm | - | 199 W/m² | - |
| 1778085423 | 26.11° C | 92% | 1013.9 hPa | 0 mm | - | 262 W/m² | - |
| 1778085304 | 26.11° C | 92% | 1014 hPa | 0 mm | - | 266 W/m² | - |
| 1778084944 | 26.67° C | 90% | 1013.9 hPa | 0 mm | - | 111 W/m² | - |
| 1778084642 | 26.67° C | 90% | 1013.8 hPa | 0 mm | - | 23 W/m² | - |
| 1778084224 | 26.67° C | 90% | 1013.6 hPa | 0 mm | - | 98 W/m² | - |
| 1778084163 | 26.67° C | 90% | 1013.7 hPa | 0 mm | - | 102 W/m² | - |
* Rain latest hour (hover to see other rain measurements)
** Current wind speed in m/s (hover to see current wind gust speed)